This demonstration page uses our WeatherBlox Daily Observations layout. Learn more.

Left ArrowRight Arrow

Hourly Observations for February 24, 2016

Temp ( °F °C ) Dew Point ( °F °C ) Humidity (%) Winds ( mph kmh ) Pressure ( in mb ) Visibility ( mi km ) Precip ( " mm )
12:59 am 00:59 Mostly Cloudy with Fog 44 6.7 43 6.1 96 96 NE 3 6 29.99 1016 0 0 0.00 0.00
1:59 am 01:59 Mostly Cloudy with Fog 44 6.7 43 6.1 96 96 NE 6 9 29.96 1015 0 0 0.00 0.00
2:59 am 02:59 Mostly Cloudy with Light Rain 44 6.7 43 6.1 96 96 NNE 3 6 29.94 1014 0 0 0.00 0.03
3:59 am 03:59 Mostly Cloudy with Fog 45 7.2 43 6.1 93 93 Calm 29.92 1013 1 1 0.00 0.03
4:59 am 04:59 Mostly Cloudy with Fog 45 7.2 44 6.7 97 97 ESE 6 9 29.89 1012 0 0 0.00 0.00
5:39 am 05:39 Mostly Cloudy with Light Rain 46 7.8 45 7.2 96 96 Calm 29.88 1012 1 1 0.00 0.03
5:59 am 05:59 Mostly Cloudy with Fog 47 8.3 45 7.2 93 93 Calm 29.86 1011 1 1 0.00 0.03
6:17 am 06:17 Mostly Cloudy with Mist and Fog 47 8.3 46 7.8 97 97 Calm 29.85 1011 1 1 0.00 0.00
6:31 am 06:31 Cloudy with Mist and Fog 48 8.9 46 7.8 93 93 Calm 29.85 1011 1 2 0.01 0.25
6:59 am 06:59 Cloudy with Mist and Fog 51 10.6 49 9.4 92 92 SSE 5 7 29.84 1011 2 3 0.01 0.25
7:09 am 07:09 Cloudy with Mist and Fog 52 11.1 50 10 93 93 SSE 3 6 29.83 1010 1 2 0.00 0.00
7:13 am 07:13 Cloudy with Mist and Fog 52 11.1 50 10 93 93 Calm 29.83 1010 1 2 0.00 0.00
7:21 am 07:21 Cloudy with Mist and Fog 53 11.7 52 11.1 96 96 Calm 29.83 1010 1 1 0.00 0.00
7:50 am 07:50 Cloudy with Mist and Fog 57 13.9 55 12.8 93 93 SSE 8 13 29.83 1010 2 3 0.00 0.00
7:59 am 07:59 Cloudy with Mist and Fog 59 15 57 13.9 93 93 S 10 17 29.83 1010 2 3 0.00 0.00
8:20 am 08:20 Cloudy with Mist and Fog 61 16.1 59 15 93 93 S 9 15 29.83 1010 2 3 0.00 0.00
8:59 am 08:59 Cloudy with Mist and Fog 62 16.7 60 15.6 93 93 S 14 22 29.80 1009 6 10 0.00 0.00
9:59 am 09:59 Cloudy 67 19.4 63 17.2 87 87 S 15 24 29.78 1008 7 11 0.00 0.00
10:10 am 10:10 Cloudy with Light Rain 67 19.4 63 17.2 87 87 S 16 26 29.77 1008 6 10 0.00 0.03
10:23 am 10:23 Cloudy 67 19.4 63 17.2 87 87 S 17 28 29.77 1008 9 14 0.00 0.03
10:54 am 10:54 Cloudy 70 21 63 17 78 78 S 20 31 29.74 1007 9 14 0.00 0.03
10:59 am 10:59 Cloudy 69 20.6 63 17.2 81 81 S 16 26 29.74 1007 9 14 0.00 0.03
11:59 am 11:59 Cloudy 70 21.1 63 17.2 79 79 S 13 20 29.71 1006 9 14 0.00 0.00
12:59 pm 12:59 Cloudy 69 20.6 63 17.2 81 81 S 13 20 29.67 1005 8 13 0.00 0.03
1:59 pm 13:59 Cloudy 70 21.1 63 17.2 79 79 SSE 16 26 29.62 1003 8 13 0.00 0.00
2:33 pm 14:33 Cloudy with Light Rain 69 20.6 64 17.8 84 84 SSE 17 28 29.59 1002 3 4 0.05 1.27
2:59 pm 14:59 Cloudy with Thunderstorms 68 20 64 17.8 87 87 S 12 19 29.58 1002 3 4 0.13 3.30
3:30 pm 15:30 Cloudy with Thunderstorms 67 19.4 64 17.8 91 91 SE 16 26 29.53 1000 2 2 0.20 5.08
3:34 pm 15:34 Mostly Cloudy with Strong Thunderstorms 67 19.4 64 17.8 91 91 SE 22 35 29.53 1000 1 2 0.25 6.35
3:41 pm 15:41 Cloudy with Strong Thunderstorms 67 19.4 64 17.8 91 91 SE 12 19 29.50 999 1 1 0.42 10.67
3:49 pm 15:49 Cloudy with Thunderstorms 68 20 64 17.8 87 87 SW 12 19 29.50 999 1 2 0.45 11.43
3:59 pm 15:59 Cloudy with Strong Thunderstorms 68 20 64 17.8 87 87 SW 31 50 29.53 1000 1 1 0.69 17.53
4:04 pm 16:04 Cloudy with Thunderstorms 67 19.4 64 17.8 91 91 SW 16 26 29.53 1000 3 4 0.02 0.51
4:11 pm 16:11 Cloudy with Light Rain 67 19.4 64 17.8 91 91 S 14 22 29.53 1000 4 6 0.02 0.51
4:20 pm 16:20 Cloudy 70 21.1 64 17.8 82 82 S 18 30 29.50 999 8 13 0.02 0.51
4:59 pm 16:59 Mostly Cloudy 72 22.2 64 17.8 76 76 S 20 31 29.48 998 8 13 0.03 0.76
5:59 pm 17:59 Mostly Cloudy 72 22.2 64 17.8 76 76 S 22 35 29.45 997 9 14 0.00 0.00
6:59 pm 18:59 Cloudy 72 22.2 64 17.8 76 76 S 22 35 29.43 997 10 16 0.00 0.00
7:59 pm 19:59 Cloudy 72 22.2 64 17.8 76 76 S 23 37 29.42 996 8 13 0.00 0.00
8:11 pm 20:11 Mostly Cloudy with Thunderstorms 72 22.2 64 17.8 76 76 S 23 37 29.41 996 8 13 0.00 0.00
8:27 pm 20:27 Cloudy with Thunderstorms 72 22.2 64 17.8 76 76 S 16 26 29.41 996 7 11 0.00 0.03
8:59 pm 20:59 Cloudy with Thunderstorms 72 22.2 64 17.8 76 76 S 15 24 29.40 996 8 13 0.01 0.25
9:07 pm 21:07 Cloudy 72 22.2 64 17.8 76 76 S 17 28 29.38 995 8 13 0.00 0.00
9:34 pm 21:34 Partly Cloudy with Thunderstorms 71 21.7 63 17.2 76 76 S 23 37 29.38 995 9 14 0.00 0.00
9:59 pm 21:59 Partly Cloudy 72 22.2 63 17.2 73 73 SSW 26 43 29.39 995 9 14 0.00 0.00
10:59 pm 22:59 Mostly Cloudy 65 18.3 57 13.9 76 76 SW 15 24 29.42 996 10 16 0.01 0.25
11:59 pm 23:59 Mostly Clear 64 17.8 57 13.9 78 78 SW 12 19 29.43 997 10 16 0.00 0.00

Powered by AerisWeather